Location: Austin, TX
(30.3000°N, 97.7500°W)
Time: 03:32:47
(UTC-05:00)

Cosmos 1666 - Visible Passes

Search period start: 24 August 2016 00:00
Search period end: 03 September 2016 00:00
Orbit: 502 x 528 km, 82.5° (Epoch: 22 August)

Date Brightness Start Highest point End Pass type
(mag) Time Alt. Az. Time Alt. Az. Time Alt. Az.
29 Aug 5.6 22:20:22 11° N 22:20:22 11° N 22:20:35 10° N visible
30 Aug 5.2 22:04:43 15° N 22:04:43 15° N 22:05:24 10° N visible
31 Aug 4.7 21:48:58 20° NNE 21:48:58 20° NNE 21:50:11 10° NNE visible
01 Sep 4.1 21:33:04 26° NNE 21:33:04 26° NNE 21:34:55 10° NNE visible
02 Sep 3.4 21:16:57 34° ENE 21:16:57 34° ENE 21:19:38 10° NNE visible
